{"data":{"norad_id":62590,"intl_designator":"2025-008D","name":"STARLINK-11397 [DTC]","alt_names":[],"object_type":"PAYLOAD","status":"ACTIVE","operator":null,"country":"US","launch_date":"2025-01-13","launch_site_code":"AFETR","launch_vehicle":null,"mission":null,"orbit_class":"UNKNOWN","rcs_meters":null,"size_class":null,"mass_kg":null,"dimensions":null,"purposes":["comms"],"wikipedia_slug":null,"has_3d_model":false,"image_url":null,"decayed_at":null,"tle_current":{"epoch":"2026-09-21T14:47:29.032800Z","epoch_age_seconds":74902,"freshness":"FRESH","line1":"1 62590U 25008D   26264.61630825  .00154580  00000+0  11851-2 0  9998","line2":"2 62590  42.9997  24.7159 0001354 246.1518 113.9208 15.70856349 98045","mean_motion":15.70856349,"eccentricity":0.0001354,"inclination_deg":42.9997,"raan_deg":24.7159,"arg_perigee_deg":246.1518,"mean_anomaly_deg":113.9208,"bstar":0.0011851,"rev_number":9804,"period_min":91.66974439876,"perigee_km":355.53647061793,"apogee_km":357.36019632623,"semimajor_km":6734.5853334721,"source":"CELESTRAK","updated_at":"2026-09-22T09:00:49.631065Z"}}}